Regional Weather Roundup
Issued by NWS Bismarck, ND

Home | Current Version | Previous Version | Text Only | Print | Product List | Glossary On
Versions: 1 2 3 4 5 6 7 8 9 10 11 12 13 14 15 16 17 18 19 20 21 22 23 24 25 26 27 28 29 30 31 32 33 34 35 36 37 38 39 40 41 42 43 44 45 46 47 48 49 50
000
ASUS43 KBIS 182210
RWRBIS

NWR BROADCAST TEXT
NATIONAL WEATHER SERVICE BISMARCK ND
400 PM CST SAT NOV 18 2017

NOTE: "FAIR" INDICATES FEW OR NO CLOUDS BELOW 12,000 FEET WITH NO
SIGNIFICANT WEATHER AND/OR OBSTRUCTIONS TO VISIBILITY.


CITY           SKY/WX    TMP DP  RH WIND       PRES   REMARKS
WILLISTON      CLOUDY    29  14  53 SW8       30.06S
MINOT          CLOUDY    27  12  53 W17G24    30.04S WCI  14
MINOT AFB      CLOUDY    24  12  58 W13       30.03R WCI  13
BISMARCK       CLEAR     35  17  47 W12       30.11R
DICKINSON      CLOUDY    33  18  53 W10       30.04S
GARRISON         N/A     27  15  61 NW13      30.05F WCI  16
HETTINGER ARPT CLEAR     35  19  52 W18       30.09R
JAMESTOWN      CLEAR     23  11  60 NW22G29   30.05R WCI   8
CARRINGTON     FAIR      19  12  73 NW14      30.07S WCI   6
HAZEN          FAIR      30  14  51 W10       30.09F
LINTON           N/A     30  14  51 NW13      30.11R
MANDAN         FAIR      30  14  51 NW10G17   30.08S
OAKES            N/A     25   9  50 NW20G25   30.06S WCI  11
RUGBY          FAIR      18   9  68 NW14      30.04R WCI   4
STANLEY        FAIR      27  16  63 W9        30.05S WCI  17
TIOGA          FAIR      27  14  59 SW14      30.03F WCI  15
WATFORD CITY   FAIR      28  16  59 SW9       30.06S WCI  20
$$

CITY           SKY/WX    TMP DP  RH WIND       PRES   REMARKS
GRAND FORKS    CLEAR     20  12  71 W9        30.04R WCI   9
GRAND FORKS AF CLEAR     19   8  63 W13       30.04R WCI   6
DEVILS LAKE    CLEAR     17   8  67 W17       30.04R WCI   1
FARGO          CLEAR     23   7  50 NW14G28   30.05R WCI  11
CANDO          FAIR      18   5  57 W16G22    30.05R WCI   3
CAVALIER       FAIR      18   7  62 W15       30.00S WCI   3
GRAFTON        FAIR      19   9  63 W16G22    30.04S WCI   5
GWINNER          N/A     25  10  54 NW15G23   30.06S WCI  12
LANGDON        FAIR      16   9  73 W21       29.98S WCI  -2
ROLLA          FAIR      16   1  53 NW12      30.00R WCI   3
WALHALLA       FAIR      18   5  57 W17       29.99F WCI   2
$$

CITY           SKY/WX    TMP DP  RH WIND       PRES   REMARKS
ABERDEEN       CLEAR     30  13  49 NW18G26   30.10R WCI  18
MOBRIDGE       CLEAR     36  17  46 NW10      30.08S
BUFFALO          N/A     42  21  43 NW24      30.02R
RAPID CITY     PTSUNNY   42  18  37 N14       30.11R
GLASGOW        CLOUDY    37  21  52 NW8       30.05F
SIDNEY         CLOUDY    32  20  61 S5        30.07F
WOLF POINT     CLOUDY    36  21  54 W9        30.07S
GLENDIVE       MOSUNNY   40  22  48 NW12      30.08R
MILES CITY     CLOUDY    43  25  49 W7        30.10S
BAKER          MOSUNNY   40  23  50 NW16      30.07F
$$

CITY           SKY/WX    TMP DP  RH WIND       PRES   REMARKS
BILLINGS       PTSUNNY   45  15  30 NW21G36   30.11F
GREAT FALLS    CLOUDY    40  19  43 SW16G23   30.09F
REGINA         MOCLDY    12   7  79 SW7       29.98F WCI   2
ESTEVAN        PTCLDY    19  10  68 SW8       30.00F WCI   9
$$





USA.gov is the U.S. government's official web portal to all federal, state and local government web resources and services.